Regional Weather Roundup
Issued by NWS

Home | Current Version | Previous Version | Text Only | Print | Product List | Glossary On
Versions: 1 2 3 4 5 6 7 8 9 10 11 12 13 14 15 16 17 18 19 20 21 22 23 24 25 26 27 28 29 30 31 32 33 34 35 36 37 38 39 40 41 42 43 44 45 46 47 48 49 50
000
ASUS43 KMKX 220700
RWRWI

WISCONSIN REGIONAL WEATHER ROUNDUP
NATIONAL WEATHER SERVICE MILWAUKEE/SULLIVAN WI
200 AM CDT MON SEP 22 2014

NOTE: "FAIR" INDICATES FEW OR NO CLOUDS BELOW 12,000 FEET WITH NO
SIGNIFICANT WEATHER AND/OR OBSTRUCTIONS TO VISIBILITY.

WIZ001-002-006>008-014>016-023>028-220800-
NORTHWEST WISCONSIN

CITY           SKY/WX    TMP DP  RH WIND       PRES   REMARKS
SUPERIOR ARPT  CLEAR     41  41  99 SW5       30.19S
ASHLAND        CLOUDY    47  45  93 W3        30.18S
HAYWARD        CLEAR     39  38  96 CALM      30.20S
SIREN          CLEAR     43  41  95 CALM      30.21S
RICE LAKE      FOG       43  42  96 CALM      30.22R VSB 1/2
LADYSMITH      CLEAR     40  39  96 CALM      30.21R
EAU CLAIRE     CLEAR     47  44  90 CALM      30.20R
MENOMONIE      SUNNY     48  47  94 W3        30.21R
NEW RICHMOND   CLEAR     45  45 100 CALM      30.22S
OSCEOLA        PTCLDY    44  44 100 CALM      30.25R
$$

WIZ003>005-009-010-017-018-220800-
NORTH CENTRAL WISCONSIN

CITY           SKY/WX    TMP DP  RH WIND       PRES   REMARKS
WOODRUFF       CLEAR     38  37  94 CALM      30.16F
RHINELANDER    CLEAR     39  37  92 W6        30.17S WCI  35
EAGLE RIVER    FOG       32  32 100 CALM      30.15S VSB 3/4
LAND O LAKES   CLEAR     32  32 100 CALM      30.16S
PHILLIPS       CLEAR     37  37  99 CALM      30.17F
TOMAHAWK       CLEAR     32  32  99 CALM      30.18S
MEDFORD        CLEAR     37  37  99 CALM      30.18F FOG
MERRILL        CLEAR     36  36 100 CALM      30.18S
$$

WIZ029-030-035-036-043>047-220800-
CENTRAL WISCONSIN

CITY           SKY/WX    TMP DP  RH WIND       PRES   REMARKS
WAUSAU         CLEAR     42  39  89 NW5       30.17S
MOSINEE        CLEAR     39  37  93 W5        30.19S
MARSHFIELD     CLEAR     42  39  89 W5        30.19S
STEVENS POINT  CLEAR     36  35  97 CALM      30.19S
WAUPACA        CLEAR     42  40  93 CALM      30.18F
WAUTOMA        NOT AVBL
WISC RAPIDS    CLEAR     39  37  92 CALM      30.21R
CAMP DOUGLAS   FOG       37  37 100 CALM      30.20F VSB 1
$$

WIZ011>013-019>022-031-037>040-048>050-220800-
NORTHEAST WISCONSIN

CITY           SKY/WX    TMP DP  RH WIND       PRES   REMARKS
ANTIGO         CLEAR     35  35  99 CALM      30.17S
STURGEON BAY   CLEAR     45  37  76 N6        30.15F
GREEN BAY      CLEAR     40  38  93 CALM      30.17S
MANITOWOC      NOT AVBL
APPLETON       CLEAR     41  37  87 W7        30.18S
CLINTONVILLE   CLEAR     39  37  93 CALM      30.18S
OSHKOSH        CLEAR     42  40  92 CALM      30.18S
$$

WIZ032>034-041-042-053>061-220800-
SOUTHWEST WISCONSIN

CITY           SKY/WX    TMP DP  RH WIND       PRES   REMARKS
LA CROSSE      CLEAR     47  45  93 SE5       30.22R
SPARTA         CLEAR     38  37  99 CALM      30.23R
VIROQUA        FAIR      43  43 100 CALM      30.22R
BOSCOBEL       FOG       45  44  97 CALM      30.23R VSB 1/4
PRAIRIE DU CHI CLEAR     46  44  94 CALM      30.23R
PLATTEVILLE    FAIR      46  44  93 NW3       30.22S
$$

WIZ056-057-062-063-064-067-068-220800-
SOUTH CENTRAL WISCONSIN

CITY           SKY/WX    TMP DP  RH WIND       PRES   REMARKS
BARABOO/DELLS  CLEAR     42  39  92 CALM      30.20F
LONE ROCK      NOT AVBL
WATERTOWN      CLEAR     43  40  91 N5        30.20R
MADISON        CLEAR     44  40  85 CALM      30.20S
MIDDLETON      FAIR      42  41  95 CALM      30.22R
MONROE         CLEAR     46  43  87 N6        30.20R
JANESVILLE     CLEAR     45  43  93 NW3       30.19R
$$

WIZ051-052-058>065-066-070>072-220800-
SOUTHEAST WISCONSIN

CITY           SKY/WX    TMP DP  RH WIND       PRES   REMARKS
MILWAUKEE      CLEAR     47  40  76 N7        30.19R
WAUKESHA       CLEAR     41  37  87 CALM      30.20R
MILWAUKEE/TIMM CLEAR     43  37  81 N6        30.20R
RACINE         CLEAR     46  41  82 NW8       30.19R
BURLINGTON     CLEAR     37  37  98 CALM      30.19R
KENOSHA        CLEAR     46  41  82 NW8       30.19R
FOND DU LAC    CLEAR     43  39  86 W6        30.19S
SHEBOYGAN      CLEAR     41  37  86 NW6       30.18S
WEST BEND      CLEAR     43  37  81 CALM      30.18F
JUNEAU         CLEAR     41  39  92 CALM      30.21S
$$

LSZ147-162-220800-
LAKE SUPERIOR

STATION/POSITION TIME  TEMP    WIND        PRES    WAVE
                       AIR SEA DIR/SP/G            HT/PER
                 (UTC) (F)     (DEG/KT/KT) (MB)    (FT/S)
W MID LAKE BUOY  0550   49 46  270/ 10/ 10 1020.5R   2/ 5
DEVILS ISLAND    0600   53     260/ 11/ 13 1021.7R
PORT WING        0640   48     130/  2/  5 1022.0S
SAXON HARBOR     0600   46     220/  3/  5 1021.7S
$$

LMZ867-665-643>646-220800-
LAKE MICHIGAN

STATION/POSITION TIME  TEMP    WIND        PRES    WAVE
                       AIR SEA DIR/SP/G            HT/PER
                 (UTC) (F)     (DEG/KT/KT) (MB)    (FT/S)
N MID LAKE BUOY  0550   48 57  340/ 16/ 19 1020.2R   3/ 5
NORTHPORT PIER   0600   49     350/ 15/ 17 1020.7S
KEWAUNEE LAKESHO 0600   44     320/  2/  4 1020.4R
SHEBOYGAN LAKESH 0600   46 51  320/  6/  8 1022.4R
PORT WASHINGTON  0600   46     300/  4/  6 1022.7R
ATWATER BUOY     0600   51     350/ 12/ 16 1022.6R
MILWAUKEE LAKESH 0600   49     330/  8/ 10   N/A
S MID LAKE BUOY  0550   54 61  350/ 19/ 25 1020.7R   7/ 8
KENOSHA   LAKESH 0600   51     330/  9/ 12 1021.3R
$$

TC  - TEMPERATURE IN CELSIUS
VSB - VISIBILITY IN STATUTE MILES
WCI - WIND CHILL INDEX
HX  - HEAT INDEX



USA.gov is the U.S. government's official web portal to all federal, state and local government web resources and services.